Regional Weather Roundup
Issued by NWS

Home | Current Version | Previous Version | Graphics & Text | Print | Product List | Glossary On
Versions: 1 2 3 4 5 6 7 8 9 10 11 12 13 14 15 16 17 18 19 20 21 22 23 24 25 26 27 28 29 30 31 32 33 34 35 36 37 38 39 40 41 42 43 44 45 46 47 48 49 50
346
ASUS45 KSLC 170810
RWRUT

UTAH REGIONAL WEATHER ROUNDUP
NATIONAL WEATHER SERVICE SALT LAKE CITY UT
200 AM MDT TUE OCT 17 2017

UTZ001>011-023>025-170900-

NORTHERN UTAH

CITY           SKY/WX    TMP DP  RH WIND       PRES   REMARKS
BRIGHAM CITY   CLEAR     34  26  75 CALM      30.34S
HILL AFB       CLEAR     45  16  31 E16       30.32F
LOGAN          CLEAR     35  26  69 CALM      30.34R
OGDEN          CLEAR     41  18  39 S7        30.32S
SALT LAKE CITY CLEAR     43  34  70 S3        30.32S
TOOELE VALLEY  PTCLDY    37  25  60 S7        30.33F WCI  32
WENDOVER       PTCLDY    38  20  48 CALM      30.33S
WEST JORDAN    PTCLDY    41  23  48 CALM      30.34R

$$

UTZ011>015-024>027-170900-

CENTRAL/NORTHEAST UTAH

CITY           SKY/WX    TMP DP  RH WIND       PRES   REMARKS
PROVO AIRPORT  CLEAR     39  28  64 SE7       30.35R WCI  34
MOAB/CANYONLAN MOCLDY    38  14  37 CALM      30.33S
DELTA          MOCLDY    36  27  69 S3        30.32F
PRICE          PTCLDY    37   6  27 N6        30.37S WCI  32
ROOSEVELT      CLOUDY    32  23  69 W6        30.37S WCI  26
VERNAL         CLOUDY    34  19  54 W3        30.36S

$$

UTZ013>016-019>022-027-170900-

SOUTHERN UTAH

CITY           SKY/WX    TMP DP  RH WIND       PRES   REMARKS
BRYCE CANYON   PTCLDY    30   0  27 W10       30.47F WCI  21
CEDAR CITY     PTCLDY    39   6  25 CALM      30.34S
MILFORD        MOCLDY    33  11  39 S3        30.33F
ST GEORGE      SUNNY     56   9  15 CALM      30.23S
HANKSVILLE     MOCLDY    34  12  40 E3        30.36S
BLANDING         N/A     40   9  28 N8        30.43S WCI  34

$$

REGIONAL REPORTS     COLORADO/ARIZONA

CITY           SKY/WX    TMP DP  RH WIND       PRES   REMARKS
CRAIG, CO      CLOUDY    24  15  68 CALM      30.40S
GRAND JUNCTION CLOUDY    37  13  37 E8        30.36S WCI  31
RIFLE, CO      CLOUDY    32  15  49 SE7       30.41S WCI  26
MONTROSE, CO   CLOUDY    35  17  47 S9        30.43R WCI  28
CORTEZ, CO     CLOUDY    30  17  58 E7        30.39S WCI  23
COLORADO CITY    N/A     37  10  32 SE5       30.35R WCI  34
PAGE, AZ       PTCLDY    51  14  22 CALM      30.30S
GRAND CANYON   PTCLDY    32   6  33 NE3       30.41S
KINGMAN, AZ    CLEAR     58  14  17 CALM      30.21S
FLAGSTAFF, AZ  CLEAR     36  17  46 CALM      30.42F

$$

REGIONAL REPORTS    NEVADA/IDAHO/WYOMING

CITY           SKY/WX    TMP DP  RH WIND       PRES   REMARKS
LAS VEGAS, NV  PTCLDY    62  12  14 S6        30.14F
ELY, NY        MOCLDY    32   0  25 S12       30.37F WCI  23
ELKO, NV       MOCLDY    34  15  46 CALM      30.32R
POCATELLO, ID  CLOUDY    31  25  78 CALM      30.31S
BURLEY, ID     CLEAR     32  27  81 CALM      30.28R
FORT BRIDGER,    N/A     48   0  13 SW10      30.43R
EVANSTON, WY   CLOUDY    42   6  22 S7        30.41S
ROCK SPRINGS,  CLOUDY    44   2  17 W15       30.37S
KEMMERER, WY   CLOUDY    36  10  35 NW5       30.41S WCI  32

$$




USA.gov is the U.S. government's official web portal to all federal, state and local government web resources and services.